Date,TemperatureHighF,TemperatureAvgF,TemperatureLowF,DewpointHighF,DewpointAvgF,DewpointLowF,HumidityHigh,HumidityAvg,HumidityLow,PressureMaxIn,PressureMinIn,WindSpeedMaxMPH,WindSpeedAvgMPH,GustSpeedMaxMPH,PrecipitationSumIn
2013-1-1,41.5,38.0,31.1,34.5,32.2,26.2,86,79,72,30.09,29.72,5,2,5,0.00
2013-1-2,39.8,30.1,25.0,25.7,17.9,-99.9,83,66,48,30.03,29.81,3,1,3,0.00
2013-1-3,37.1,28.5,18.1,23.9,20.2,14.1,87,71,57,30.03,29.91,7,2,7,0.00
2013-1-4,40.9,35.1,32.4,26.7,24.2,22.6,71,64,55,29.99,29.89,8,3,8,0.00
2013-1-5,43.3,35.2,30.9,28.4,25.0,21.9,86,67,52,30.17,29.94,8,2,8,0.00
2013-1-6,46.9,38.2,29.4,33.8,30.8,26.0,89,75,58,29.97,29.82,7,2,7,0.00
2013-1-7,45.6,38.2,28.0,33.2,29.5,24.1,88,71,56,30.23,29.95,5,1,5,0.00
2013-1-8,48.3,33.5,22.8,36.5,29.3,21.1,99,85,61,30.19,30.13,5,0,5,0.00
2013-1-9,47.3,35.6,26.7,44.5,33.2,26.5,100,92,70,30.18,30.01,6,1,6,0.00
2013-1-10,53.9,43.0,36.8,36.1,32.9,28.9,89,68,50,30.41,30.18,5,2,5,0.00
2013-1-11,44.1,39.5,35.2,41.9,36.8,31.7,100,90,76,30.28,29.91,7,1,7,0.00
2013-1-12,57.2,45.2,38.9,52.4,44.4,38.9,100,97,83,29.98,29.91,3,0,3,0.00
2013-1-13,52.3,47.1,41.3,52.3,47.1,41.3,100,100,100,29.91,29.76,3,0,3,0.00
2013-1-14,52.8,48.0,39.2,52.8,37.7,-99.9,100,83,65,30.13,29.75,5,1,5,0.00
2013-1-15,40.0,37.2,33.0,39.8,35.6,31.8,100,94,82,30.12,29.56,6,2,6,0.00
2013-1-16,40.2,36.0,32.9,40.2,36.0,32.9,100,100,100,29.56,29.30,7,1,7,0.00
2013-1-17,41.1,38.7,34.9,40.9,33.5,29.7,100,82,65,29.54,29.38,9,1,9,0.00
2013-1-18,39.0,33.2,26.8,32.4,20.1,13.1,87,60,38,29.90,29.47,8,3,8,0.00
2013-1-21,39.3,32.2,23.4,24.1,19.4,8.3,77,59,49,29.45,29.23,7,3,7,0.00
2013-1-22,25.0,19.0,13.7,8.6,2.2,-2.1,60,48,33,29.67,29.38,7,3,7,0.00
2013-1-23,26.6,18.7,11.3,5.6,2.6,0.2,67,50,33,29.73,29.52,7,2,7,0.00
2013-1-24,27.4,20.4,13.4,18.4,9.5,3.0,90,64,42,29.90,29.50,7,2,7,0.00
2013-1-25,21.2,18.0,15.5,19.2,10.6,3.7,92,74,50,29.91,29.46,7,1,7,0.00
2013-1-26,31.5,24.0,17.4,27.8,21.0,15.5,95,88,75,29.82,29.47,3,0,3,0.00
2013-1-27,37.2,29.1,19.3,23.7,20.5,13.3,87,71,52,29.98,29.82,5,1,5,0.00
2013-1-28,38.9,33.8,28.4,38.9,33.1,23.7,100,97,83,29.85,29.44,6,1,6,0.00
2013-1-29,66.9,51.4,39.4,59.1,49.2,38.9,100,93,76,29.51,29.35,4,1,4,0.00
2013-1-30,66.6,49.4,37.1,64.2,46.1,-99.9,100,98,92,29.35,28.64,15,2,15,0.00
2013-1-31,55.4,37.7,27.2,55.4,27.6,13.6,100,68,47,29.29,28.61,12,5,12,0.00
2013-2-1,29.3,24.8,20.1,24.0,13.0,5.9,90,61,45,29.75,29.23,9,3,17,0.00
2013-2-2,26.9,20.7,13.7,23.3,12.9,5.1,91,72,54,29.76,29.41,8,2,15,0.00
2013-2-3,33.6,27.3,19.9,30.1,24.5,18.0,100,90,62,29.41,29.21,7,2,11,0.00
2013-2-4,35.4,29.1,23.9,29.5,18.9,12.2,100,67,48,29.48,29.29,7,2,18,0.00
2013-2-5,36.3,32.0,29.4,35.8,31.8,29.4,100,99,97,29.34,29.25,1,0,11,0.00
2013-2-6,41.5,33.9,28.4,34.2,28.1,21.5,100,81,56,29.75,29.33,6,2,40,0.00
2013-2-7,37.7,31.7,23.9,30.0,25.3,20.3,94,78,60,29.82,29.61,7,1,12,0.00
2013-2-8,37.9,34.1,30.9,37.9,31.6,23.6,100,91,74,29.61,29.33,9,2,17,0.00
2013-2-9,40.9,31.6,26.0,23.0,20.0,17.0,76,63,43,29.93,29.52,13,3,23,0.00
2013-2-10,43.5,32.9,19.6,24.9,20.8,15.6,89,63,40,30.00,29.73,10,3,18,0.00
2013-2-11,58.2,45.2,34.6,50.8,38.8,24.9,100,82,33,29.73,29.22,9,2,14,0.00
2013-2-12,55.8,45.5,33.9,35.3,31.2,28.0,79,58,42,29.55,29.40,7,2,13,0.00
2013-2-13,41.8,33.8,26.7,35.6,31.0,25.0,100,90,69,29.50,29.23,8,1,8,0.00
2013-2-14,34.8,32.8,30.9,34.8,32.1,28.7,100,97,88,29.52,29.33,2,0,8,0.00
2013-3-6,40.0,37.2,34.1,36.0,34.2,32.8,100,89,79,29.78,29.51,15,5,15,0.00
2013-3-7,48.8,39.9,31.6,34.2,31.9,28.2,89,74,57,29.93,29.78,6,1,7,0.00
2013-3-8,50.5,40.2,34.0,34.5,30.3,27.5,89,69,52,30.06,29.91,12,3,12,0.00
2013-3-9,61.5,44.4,29.7,32.4,27.7,24.0,81,56,26,30.13,30.01,5,1,7,0.00
2013-3-10,63.9,47.6,29.4,36.0,29.6,25.4,90,55,28,30.06,29.93,14,4,14,0.00
2013-3-11,58.6,51.0,42.9,51.8,42.0,27.0,92,73,43,29.95,29.62,13,5,13,0.00
2013-3-12,57.0,50.6,41.2,54.8,45.5,32.2,100,84,66,29.73,29.51,15,4,15,0.00
2013-3-13,47.4,40.3,32.5,33.7,27.2,20.8,80,60,44,29.73,29.47,10,3,10,0.00
2013-3-14,44.8,36.7,31.1,23.2,20.3,18.1,67,52,37,29.69,29.61,12,4,12,0.00
2013-3-15,54.6,42.5,28.8,37.8,28.8,20.5,76,59,44,29.66,29.35,10,3,10,0.00
2013-3-16,47.6,39.0,34.2,41.0,36.4,34.2,100,91,65,29.51,29.26,11,3,11,0.00
2013-3-17,40.1,36.3,33.4,37.1,30.8,25.9,100,82,61,29.82,29.50,9,2,9,0.00
2013-3-18,34.9,33.3,31.8,33.0,28.4,22.3,100,83,63,29.86,29.47,10,2,10,0.00
2013-3-19,55.2,39.5,32.1,45.4,34.6,28.8,100,87,38,29.47,29.30,9,2,9,0.00
2013-3-22,43.2,36.4,30.3,24.0,22.5,21.7,71,58,45,29.61,29.51,12,2,12,0.00
2013-3-23,54.8,38.4,26.0,29.6,25.0,19.9,83,61,37,29.63,29.52,4,1,7,0.00
2013-3-24,42.9,35.0,26.7,33.7,26.2,20.9,98,72,51,29.60,29.24,8,1,8,0.00
2013-3-25,42.6,35.5,32.1,41.1,35.0,32.1,100,98,86,29.30,29.13,2,0,7,0.00
2013-3-26,52.3,40.6,30.2,40.1,34.0,30.2,100,80,50,29.60,29.30,5,1,7,0.00
2013-3-27,50.6,42.3,36.2,37.1,32.8,30.3,84,70,51,29.72,29.60,8,2,8,0.00
2013-3-28,50.8,42.8,36.9,35.6,33.8,31.6,82,71,53,29.83,29.67,7,2,7,0.00
2013-3-29,57.9,45.7,38.3,39.3,34.2,31.1,84,66,43,29.85,29.74,5,1,7,0.00
2013-3-30,61.6,45.6,30.0,37.9,30.2,24.9,95,60,27,29.83,29.69,5,1,7,0.00
2013-3-31,47.3,43.2,36.1,47.3,39.4,27.7,100,87,60,29.70,29.35,7,1,7,0.00
2013-4-1,59.0,45.7,35.8,50.3,36.8,21.4,100,74,47,29.59,29.35,8,2,8,0.00
2013-4-2,49.2,38.5,29.6,24.5,21.5,17.6,73,52,32,29.77,29.59,8,2,8,0.00
2013-4-3,51.3,36.3,25.7,25.4,20.4,16.3,77,55,28,29.97,29.77,6,2,7,0.00
2013-4-4,49.3,36.8,22.6,22.6,18.9,14.8,78,51,30,30.00,29.66,11,3,11,0.00
2013-4-5,67.4,49.4,35.2,37.2,30.0,21.2,86,51,29,29.67,29.44,6,2,7,0.00
2013-4-6,57.2,44.6,30.6,29.9,25.3,21.6,75,49,28,29.92,29.68,7,2,7,0.00
2013-4-7,69.6,54.6,41.0,48.1,38.8,24.4,71,56,43,29.82,29.53,15,6,15,0.00
2013-4-8,79.1,66.8,52.6,54.1,50.2,46.6,83,57,36,29.67,29.53,8,3,8,0.00
2013-4-9,87.1,72.2,58.2,62.0,56.3,49.7,76,59,40,29.69,29.52,10,2,10,0.00
2013-4-10,90.4,75.7,63.3,65.8,60.1,54.9,77,60,38,29.56,29.38,8,3,8,0.00
2013-4-11,85.0,70.0,59.0,65.8,60.9,57.0,96,75,47,29.51,29.34,13,3,13,0.00
2013-4-12,59.0,53.4,47.7,58.4,53.4,47.7,100,100,98,29.41,29.22,9,3,9,0.00
2013-4-13,67.6,55.1,46.9,48.0,39.6,34.4,100,59,33,29.58,29.42,6,2,7,0.00
2013-4-14,66.6,54.0,38.6,46.1,39.5,35.4,90,61,36,29.76,29.58,6,1,7,0.00
2013-4-15,65.3,59.0,52.5,54.9,49.9,42.9,78,72,65,29.86,29.72,9,4,9,0.00
2013-4-16,75.9,63.9,55.2,64.1,58.1,49.5,97,82,66,29.87,29.69,11,5,11,0.00
2013-4-17,68.7,62.5,57.1,65.4,59.5,56.2,100,90,74,29.84,29.73,10,2,10,0.00
2013-4-18,73.3,64.6,59.4,68.2,61.3,55.1,100,90,76,29.82,29.56,14,4,14,0.00
2013-4-19,74.0,64.4,52.3,69.4,61.9,46.3,100,92,80,29.56,29.18,15,6,15,0.00
2013-4-20,56.8,49.4,43.0,45.7,36.3,30.6,79,61,44,29.69,29.40,6,3,7,0.00
2013-4-21,52.9,46.3,40.2,33.0,31.5,27.6,74,58,38,30.16,30.11,4,1,7,0.00
2013-4-22,59.4,46.8,32.7,38.4,35.0,31.2,99,66,40,30.17,29.98,12,2,12,0.00
2013-4-23,60.3,47.3,33.2,45.5,40.3,32.4,100,78,56,30.01,29.71,5,1,7,0.00
2013-4-24,75.5,57.2,38.6,62.9,51.5,38.6,100,83,58,29.70,29.33,17,3,17,0.00
2013-4-25,66.1,53.4,42.5,44.3,36.8,32.7,77,56,31,29.90,29.66,5,2,7,0.00
2013-4-26,66.3,52.9,41.3,42.8,37.1,33.3,86,58,32,30.07,29.91,7,1,7,0.00
2013-4-27,72.6,57.0,36.6,48.0,41.8,33.7,100,61,34,30.02,29.87,7,2,7,0.00
2013-4-28,61.6,54.2,49.8,52.8,46.6,40.6,100,78,51,29.87,29.73,10,3,10,0.00
2013-4-29,60.2,55.5,52.1,60.2,55.3,51.9,100,99,93,29.73,29.65,6,1,7,0.00
2013-4-30,61.3,57.6,54.6,60.1,57.0,54.6,100,98,91,29.90,29.71,10,2,10,0.00
2013-5-1,72.6,60.5,50.4,54.4,45.4,37.1,100,63,29,30.01,29.90,7,2,7,0.00
2013-5-2,73.3,57.9,42.6,52.3,47.2,42.6,100,71,39,30.04,29.91,10,2,10,0.00
2013-5-3,71.2,58.2,44.0,50.8,47.7,43.7,100,71,44,29.99,29.87,8,3,13,0.00
2013-5-4,70.9,56.5,40.3,51.2,45.9,40.0,100,71,43,29.94,29.77,9,2,13,0.00
2013-5-5,67.2,54.5,44.5,47.0,44.3,42.5,95,71,44,29.85,29.73,8,2,13,0.00
2013-5-6,61.9,53.7,42.3,59.7,51.9,41.5,100,94,82,29.79,29.68,9,3,13,0.00
2013-5-7,61.8,59.7,57.5,61.8,59.7,57.5,100,100,98,29.69,29.57,11,6,17,0.00
2013-5-8,74.4,62.2,55.2,64.8,59.0,55.2,100,90,61,29.61,29.53,5,1,12,0.00
2013-5-9,77.5,62.8,53.5,64.2,58.9,53.5,100,89,59,29.61,29.52,5,1,8,0.00
2013-5-10,84.6,65.7,52.5,67.3,60.1,52.5,100,85,50,29.62,29.49,5,2,10,0.00
2013-6-7,68.0,66.6,65.3,68.0,66.6,65.3,100,100,100,29.47,29.40,5,1,10,0.00
2013-6-8,84.0,70.4,62.9,67.8,64.4,61.2,100,83,56,29.84,29.47,4,0,10,0.00
2013-6-9,83.1,71.2,59.3,71.5,66.5,59.3,100,87,64,29.93,29.82,8,1,10,0.00
2013-6-10,77.8,71.1,68.4,77.7,63.9,-99.9,100,95,96,29.84,29.51,10,1,10,0.00
2013-6-11,83.3,72.3,64.8,74.0,46.1,-99.9,100,77,68,29.55,29.51,6,2,10,0.00
2013-6-24,82.7,81.5,79.3,72.3,71.5,70.7,75,72,71,29.44,29.42,2,1,10,0.00
2013-7-14,95.0,87.2,76.8,79.1,77.2,74.9,97,73,59,29.45,29.38,5,1,10,0.00
2013-7-15,100.8,83.8,69.5,81.6,76.2,69.5,100,81,49,29.42,29.31,4,0,10,0.00
2013-7-16,97.1,84.4,74.6,81.2,76.7,74.3,100,80,51,29.38,29.30,5,0,10,0.00
2013-7-17,96.0,84.9,72.8,81.4,76.7,72.8,100,79,53,29.35,29.21,10,1,10,0.00
2013-7-18,102.2,87.5,74.0,82.5,79.3,74.0,100,79,53,29.25,29.11,2,0,10,0.00
2013-7-19,102.9,88.1,76.6,83.7,80.0,75.0,100,80,52,29.13,28.96,3,1,10,0.00
2013-9-22,75.2,65.2,52.3,63.8,54.2,50.0,95,69,48,29.56,29.42,8,1,10,0.00
2013-9-23,71.4,57.9,47.4,52.9,48.6,45.7,94,73,49,29.68,29.56,4,0,10,0.00
2013-9-24,77.7,57.9,42.1,56.3,49.4,42.1,100,78,40,29.71,29.53,2,0,10,0.00
2013-9-25,69.5,49.7,43.3,58.9,48.0,43.3,100,95,47,29.59,29.55,3,0,10,0.00
2013-10-16,69.4,66.0,62.6,64.7,63.8,62.6,100,93,83,29.44,29.32,4,1,10,0.00
2013-10-17,62.6,60.5,59.4,62.2,60.5,59.4,100,100,100,29.32,29.29,2,0,10,0.00